This is the latest recevied weather packets stored in our database for station/object SHLBYV-WX. If no packets are shown the sender has not sent any weather packets the latest 10 day(s).
| Time | Temp. | Humidity | Pressure | Rain* | Wind** | Luminosity | Snow |
|---|---|---|---|---|---|---|---|
| 1777244464 | 18.33° C | 48% | 988.3 hPa | 0 mm | - | - | - |
| 1777243553 | 18.33° C | 44% | 987.6 hPa | 0 mm | - | - | - |
| 1777242659 | 18.89° C | 44% | 988.7 hPa | 0 mm | - | - | - |
| 1777241749 | 18.89° C | 44% | 988.7 hPa | 0 mm | - | - | - |
| 1777240870 | 19.44° C | 44% | 988.7 hPa | 0 mm | - | - | - |
| 1777239948 | 19.44° C | 47% | 987.9 hPa | 0 mm | - | - | - |
| 1777239061 | 19.44° C | 47% | 988.8 hPa | 0 mm | - | - | - |
| 1777238147 | 19.44° C | 47% | 988.8 hPa | 0 mm | - | - | - |
| 1777237268 | 19.44° C | 47% | 988.8 hPa | 0 mm | - | - | - |
| 1777236349 | 18.89° C | 48% | 988.4 hPa | 0 mm | - | - | - |
| 1777235461 | 18.89° C | 46% | 988.4 hPa | 0 mm | - | - | - |
| 1777234549 | 18.89° C | 46% | 988.4 hPa | 0 mm | - | - | - |
| 1777233665 | 18.89° C | 46% | 988.4 hPa | 0 mm | - | - | - |
| 1777232749 | 18.89° C | 53% | 988.7 hPa | 0 mm | - | - | - |
| 1777231863 | 18.33° C | 53% | 988.7 hPa | 0 mm | - | - | - |
| 1777230951 | 18.33° C | 53% | 988.7 hPa | 0 mm | - | - | - |
| 1777230069 | 18.33° C | 53% | 988.7 hPa | 0 mm | - | - | - |
| 1777229151 | 17.78° C | 56% | 989 hPa | 0 mm | - | - | - |
| 1777228263 | 17.22° C | 58% | 990 hPa | 0 mm | - | - | - |
| 1777227349 | 16.11° C | 58% | 990 hPa | 0 mm | - | - | - |
| 1777226470 | 15.56° C | 58% | 990 hPa | 0 mm | - | - | - |
| 1777225549 | 15.56° C | 68% | 989.9 hPa | 0 mm | - | - | - |
| 1777224660 | 15° C | 75% | 990.2 hPa | 0 mm | - | - | - |
| 1777223748 | 13.89° C | 75% | 990.1 hPa | 0 mm | - | - | - |
| 1777222871 | 12.78° C | 75% | 990.1 hPa | 0 mm | - | - | - |
* Rain latest hour (hover to see other rain measurements)
** Current wind speed in m/s (hover to see current wind gust speed)